Location: Brunsen
(51.8651°N, 9.8610°E)
Time: 14:15:15
(UTC+00:00)

Cosmos 407 Rocket - Pass Details

Date: 23 May 2024
Orbit: 742 x 783 km, 74.0° (Epoch: 12 June)

Event Time Altitude Azimuth Distance (km) Brightness Sun altitude
Exits shadow 00:44:28 16° 240° (WSW) 1,959 5.2 -15.0°
Maximum altitude 00:48:23 41° 305° (NW) 1,116 4.4 -14.8°
Drops below altitude 10° 00:53:21 10° 15° (NNE) 2,314 7.4 -14.5°
Sets 00:55:52 0° 23° (NNE) 3,237 8.7 -14.4°
